| time (UTC) | temp F | wind direction | speed MPH | gust MPH | rain 1hr in | rain 24hr in | rain mn in | humidity % | barometer mb |
| 20260904004536 | 88 | 154 | 3.0 | 9.0 | 0.00 | 0.00 | 0.00 | 57 | 1005.7 |
| 20260904003035 | 89 | 211 | 2.0 | 10.0 | 0.00 | 0.00 | 0.00 | 55 | 1005.6 |
| 20260904001535 | 91 | 136 | 4.0 | 11.0 | 0.00 | 0.00 | 0.00 | 53 | 1005.6 |
| 20260904000110 | 91 | 92 | 3.0 | 11.0 | 0.00 | 0.00 | 0.00 | 52 | 1005.5 |
| 20260903234531 | 91 | 131 | 2.0 | 11.0 | 0.00 | 0.00 | 0.00 | 51 | 1005.5 |
| 20260903233032 | 93 | 224 | 3.0 | 11.0 | 0.00 | 0.00 | 0.00 | 50 | 1005.4 |
| 20260903231529 | 94 | 283 | 1.0 | 12.0 | 0.00 | 0.00 | 0.00 | 48 | 1005.3 |
| 20260903230031 | 95 | 190 | 3.0 | 10.0 | 0.00 | 0.00 | 0.00 | 47 | 1005.2 |
| 20260903224538 | 96 | 126 | 2.0 | 11.0 | 0.00 | 0.00 | 0.00 | 46 | 1005.3 |
| 20260903223028 | 97 | 133 | 3.0 | 10.0 | 0.00 | 0.00 | 0.00 | 44 | 1005.2 |
| 20260903221525 | 98 | 176 | 2.0 | 10.0 | 0.00 | 0.00 | 0.00 | 44 | 1005.3 |
| 20260903220023 | 97 | 250 | 1.0 | 5.0 | 0.00 | 0.00 | 0.00 | 44 | 1005.4 |
| 20260903214532 | 97 | 297 | 1.0 | 7.0 | 0.00 | 0.00 | 0.00 | 46 | 1005.6 |
| 20260903213032 | 97 | 226 | 1.0 | 9.0 | 0.00 | 0.00 | 0.00 | 45 | 1005.7 |
| 20260903211519 | 98 | 82 | 3.0 | 9.0 | 0.00 | 0.00 | 0.00 | 43 | 1005.6 |
| 20260903210019 | 98 | 262 | 1.0 | 7.0 | 0.00 | 0.00 | 0.00 | 44 | 1005.7 |
| 20260903204516 | 97 | 147 | 1.0 | 8.0 | 0.00 | 0.00 | 0.00 | 45 | 1006.0 |
| 20260903203014 | 97 | 154 | 4.0 | 9.0 | 0.00 | 0.00 | 0.00 | 44 | 1006.1 |
| 20260903201509 | 99 | 211 | 1.0 | 5.0 | 0.00 | 0.00 | 0.00 | 44 | 1006.3 |
| 20260903200008 | 98 | 139 | 1.0 | 8.0 | 0.00 | 0.00 | 0.00 | 45 | 1006.4 |
| 20260903194509 | 98 | 134 | 1.0 | 6.0 | 0.00 | 0.00 | 0.00 | 44 | 1006.6 |
| 20260903193002 | 98 | 115 | 1.0 | 6.0 | 0.00 | 0.00 | 0.00 | 45 | 1006.6 |
| 20260903191600 | 97 | 210 | 2.0 | 8.0 | 0.00 | 0.00 | 0.00 | 44 | 1006.8 |
| 20260903184553 | 96 | 221 | 0.0 | 8.0 | 0.00 | 0.00 | 0.00 | 47 | 1007.2 |
| 20260903183055 | 96 | 271 | 3.0 | 8.0 | 0.00 | 0.00 | 0.00 | 47 | 1007.4 |
| 20260903181550 | 95 | 149 | 3.0 | 7.0 | 0.00 | 0.00 | 0.00 | 49 | 1007.6 |
| 20260903180050 | 94 | 352 | 2.0 | 9.0 | 0.00 | 0.00 | 0.00 | 50 | 1007.8 |
| 20260903174542 | 95 | 147 | 1.0 | 10.0 | 0.00 | 0.00 | 0.00 | 49 | 1008.0 |
| 20260903173041 | 94 | 146 | 1.0 | 7.0 | 0.00 | 0.00 | 0.00 | 52 | 1008.2 |
| 20260903171539 | 92 | 136 | 1.0 | 6.0 | 0.00 | 0.00 | 0.00 | 53 | 1008.3 |
| 20260903170035 | 90 | 240 | 3.0 | 6.0 | 0.00 | 0.00 | 0.00 | 55 | 1008.5 |
| 20260903164529 | 89 | 159 | 1.0 | 8.0 | 0.00 | 0.00 | 0.00 | 58 | 1008.6 |
| 20260903163033 | 89 | 131 | 3.0 | 8.0 | 0.00 | 0.00 | 0.00 | 59 | 1008.7 |
| 20260903161522 | 87 | 243 | 2.0 | 6.0 | 0.00 | 0.00 | 0.00 | 62 | 1008.7 |
| 20260903160022 | 86 | 204 | 1.0 | 7.0 | 0.00 | 0.00 | 0.00 | 64 | 1008.7 |
| 20260903154622 | 85 | 133 | 2.0 | 7.0 | 0.00 | 0.00 | 0.00 | 66 | 1008.8 |
| 20260903153020 | 83 | 221 | 2.0 | 6.0 | 0.00 | 0.00 | 0.00 | 68 | 1008.9 |
| 20260903151519 | 83 | 247 | 1.0 | 5.0 | 0.00 | 0.00 | 0.00 | 70 | 1008.9 |
| 20260903150018 | 81 | 127 | 1.0 | 7.0 | 0.00 | 0.00 | 0.00 | 73 | 1009.1 |
| 20260903144518 | 80 | 214 | 2.0 | 9.0 | 0.00 | 0.00 | 0.00 | 75 | 1009.3 |
| 20260903143016 | 79 | 238 | 3.0 | 7.0 | 0.00 | 0.00 | 0.00 | 75 | 1009.3 |
| 20260903141518 | 79 | 236 | 2.0 | 8.0 | 0.00 | 0.00 | 0.00 | 76 | 1009.4 |
| 20260903140020 | 78 | 271 | 1.0 | 8.0 | 0.00 | 0.00 | 0.00 | 77 | 1009.7 |
| 20260903134512 | 77 | 195 | 2.0 | 8.0 | 0.00 | 0.00 | 0.00 | 78 | 1009.7 |
| 20260903133017 | 77 | 153 | 1.0 | 7.0 | 0.00 | 0.00 | 0.00 | 78 | 1009.5 |
| 20260903131511 | 76 | 167 | 0.0 | 7.0 | 0.00 | 0.00 | 0.00 | 78 | 1009.4 |
| 20260903130010 | 76 | 207 | 1.0 | 7.0 | 0.00 | 0.00 | 0.00 | 79 | 1009.4 |
| 20260903124509 | 75 | 255 | 1.0 | 7.0 | 0.00 | 0.00 | 0.00 | 79 | 1009.2 |
| 20260903123016 | 75 | 145 | 1.0 | 4.0 | 0.00 | 0.00 | 0.00 | 79 | 1009.0 |
| 20260903121505 | 75 | 163 | 0.0 | 6.0 | 0.00 | 0.00 | 0.00 | 79 | 1008.9 |
| 20260903120005 | 76 | 350 | 1.0 | 9.0 | 0.00 | 0.00 | 0.00 | 78 | 1008.7 |
| 20260903114503 | 76 | 226 | 0.0 | 4.0 | 0.00 | 0.00 | 0.00 | 77 | 1008.7 |
| 20260903113105 | 76 | 198 | 2.0 | 11.0 | 0.00 | 0.00 | 0.00 | 76 | 1008.6 |
| 20260903111616 | 77 | 203 | 2.0 | 8.0 | 0.00 | 0.00 | 0.00 | 75 | 1008.4 |
| 20260903110055 | 77 | 111 | 1.0 | 6.0 | 0.00 | 0.00 | 0.00 | 75 | 1008.3 |
| 20260903104605 | 77 | 118 | 1.0 | 8.0 | 0.00 | 0.00 | 0.00 | 74 | 1008.2 |
| 20260903103104 | 78 | 118 | 1.0 | 10.0 | 0.00 | 0.00 | 0.00 | 74 | 1008.3 |
| 20260903101556 | 78 | 356 | 1.0 | 8.0 | 0.00 | 0.00 | 0.00 | 73 | 1008.3 |
| 20260903100049 | 78 | 132 | 2.0 | 7.0 | 0.00 | 0.00 | 0.00 | 73 | 1008.3 |
| 20260903094557 | 79 | 233 | 2.0 | 7.0 | 0.00 | 0.00 | 0.00 | 72 | 1008.2 |
| 20260903093120 | 79 | 180 | 2.0 | 7.0 | 0.00 | 0.00 | 0.00 | 71 | 1008.2 |
| 20260903091551 | 80 | 118 | 1.0 | 6.0 | 0.00 | 0.00 | 0.00 | 70 | 1008.3 |
| 20260903090044 | 80 | 125 | 1.0 | 7.0 | 0.00 | 0.00 | 0.00 | 69 | 1008.2 |
| 20260903084541 | 80 | 123 | 3.0 | 7.0 | 0.00 | 0.00 | 0.00 | 69 | 1008.2 |
| 20260903083039 | 81 | 186 | 0.0 | 9.0 | 0.00 | 0.00 | 0.00 | 68 | 1008.2 |
| 20260903081544 | 81 | 139 | 1.0 | 7.0 | 0.00 | 0.00 | 0.00 | 67 | 1008.3 |
| 20260903080036 | 81 | 228 | 1.0 | 8.0 | 0.00 | 0.00 | 0.00 | 66 | 1008.3 |
| 20260903074536 | 82 | 156 | 1.0 | 6.0 | 0.00 | 0.00 | 0.00 | 65 | 1008.3 |
| 20260903073033 | 82 | 212 | 2.0 | 8.0 | 0.00 | 0.00 | 0.00 | 64 | 1008.2 |
| 20260903071530 | 83 | 245 | 3.0 | 7.0 | 0.00 | 0.00 | 0.00 | 63 | 1008.3 |
| 20260903070050 | 83 | 194 | 2.0 | 7.0 | 0.00 | 0.00 | 0.00 | 62 | 1008.3 |
| 20260903064526 | 83 | 288 | 2.0 | 9.0 | 0.00 | 0.00 | 0.00 | 61 | 1008.1 |
| 20260903063023 | 84 | 278 | 3.0 | 8.0 | 0.00 | 0.00 | 0.00 | 60 | 1008.1 |
| 20260903061521 | 85 | 242 | 3.0 | 9.0 | 0.00 | 0.00 | 0.00 | 57 | 1008.3 |
| 20260903060018 | 85 | 311 | 3.0 | 8.0 | 0.00 | 0.00 | 0.00 | 56 | 1008.2 |
| 20260903054522 | 86 | 136 | 2.0 | 8.0 | 0.00 | 0.00 | 0.00 | 56 | 1008.2 |
| 20260903053012 | 86 | 153 | 4.0 | 9.0 | 0.00 | 0.00 | 0.00 | 56 | 1008.1 |
| 20260903051510 | 87 | 236 | 5.0 | 12.0 | 0.00 | 0.00 | 0.00 | 53 | 1008.1 |
| 20260903050004 | 87 | 255 | 2.0 | 9.0 | 0.00 | 0.00 | 0.00 | 51 | 1008.0 |
| 20260903044505 | 88 | 146 | 1.0 | 5.0 | 0.00 | 0.00 | 0.00 | 51 | 1007.9 |
| 20260903043004 | 88 | 242 | 2.0 | 8.0 | 0.00 | 0.00 | 0.00 | 50 | 1007.9 |
| 20260903041506 | 88 | 15 | 1.0 | 8.0 | 0.00 | 0.00 | 0.00 | 50 | 1008.0 |
| 20260903040002 | 89 | 86 | 2.0 | 6.0 | 0.00 | 0.00 | 0.00 | 49 | 1008.0 |
| 20260903034502 | 89 | 146 | 1.0 | 7.0 | 0.00 | 0.00 | 0.00 | 48 | 1007.9 |
| 20260903033004 | 89 | 219 | 2.0 | 8.0 | 0.00 | 0.00 | 0.00 | 47 | 1008.0 |
| 20260903031600 | 90 | 121 | 2.0 | 6.0 | 0.00 | 0.00 | 0.00 | 46 | 1008.0 |
| 20260903030100 | 90 | 19 | 3.0 | 9.0 | 0.00 | 0.00 | 0.00 | 45 | 1007.8 |
| 20260903024600 | 90 | 246 | 1.0 | 7.0 | 0.00 | 0.00 | 0.00 | 44 | 1007.8 |
| 20260903023101 | 91 | 156 | 1.0 | 7.0 | 0.00 | 0.00 | 0.00 | 44 | 1007.7 |
| 20260903021559 | 91 | 111 | 0.0 | 7.0 | 0.00 | 0.00 | 0.00 | 44 | 1007.6 |
| 20260903020059 | 92 | 88 | 2.0 | 7.0 | 0.00 | 0.00 | 0.00 | 44 | 1007.3 |
| 20260903014621 | 92 | 147 | 2.0 | 9.0 | 0.00 | 0.00 | 0.00 | 43 | 1007.1 |
| 20260903013106 | 92 | 156 | 2.0 | 9.0 | 0.00 | 0.00 | 0.00 | 42 | 1007.0 |
| 20260903011555 | 93 | 133 | 0.0 | 2.0 | 0.00 | 0.00 | 0.00 | 41 | 1006.8 |
| 20260903010055 | 94 | 144 | 0.0 | 6.0 | 0.00 | 0.00 | 0.00 | 40 | 1006.7 |